Weather History for KAUO - December, 2013

Change the Weather History Date:

Thursday, December 26, 2013

  Actual Average Record
Temperature  
Mean Temperature 45 °F -  
Max Temperature 55 °F - 74 °F (1987)
Min Temperature 34 °F - 5 °F (1983)
Degree Days  
Heating Degree Days 20    
Month to date heating degree days 361  
Since 1 July heating degree days 796  
Moisture  
Dew Point 28 °F    
Average Humidity 58    
Maximum Humidity 81    
Minimum Humidity 36    
Precipitation  
Precipitation 0.00 in - 2.00 in (1976)
Month to date precipitation 1.88  
Year to date precipitation 43.14  
Sea Level Pressure  
Sea Level Pressure 30.31 in    
Wind  
Wind Speed 6 mph (NNE)    
Max Wind Speed 12 mph    
Max Gust Speed -    
Visibility 10 miles    
Events      
T = Trace of Precipitation, MM = Missing Value Source: NWS Daily Summary

Daily Weather History Graph

Daily Weather History Graph

Search for Another Location

Airport or City:

Trip Planner

Search our weather history database for the weather conditions in past years. The results will help you decide how hot, cold, wet, or windy it might be!

Date:

Astronomy

Dec. 26, 2013 Rise Set
Actual Time 6:42 AM CST 4:43 PM CST
Civil Twilight 6:14 AM CST 5:10 PM CST
Nautical Twilight 5:44 AM CST 5:40 PM CST
Astronomical Twilight 5:14 AM CST 6:11 PM CST
Moon 12:24 AM CST (12/26) 12:05 PM CST (12/26)
Length of Visible Light 10h 55m
Length of Day
10h 00m
Last Quarter, 38% of the Moon is Illuminated
Dec 26
Last Quarter
Jan 1
New
Jan 7
First Quarter
Jan 15
Full
Jan 23
Last Quarter

Hourly Weather History & Observations

Time (CST) Temp. Windchill Dew Point Humidity Pressure Visibility Wind Dir Wind Speed Gust Speed Precip Events Conditions
12:15 AM 39.2 °F 35.9 °F 26.6 °F 61% 30.32 in 10.0 mi NE 4.6 mph - N/A   Mostly Cloudy
12:35 AM 39.2 °F 37.0 °F 28.4 °F 65% 30.31 in 10.0 mi NNE 3.5 mph - N/A   Overcast
12:55 AM 39.2 °F 34.2 °F 28.4 °F 65% 30.32 in 10.0 mi NNE 6.9 mph - N/A   Overcast
1:15 AM 39.2 °F 34.2 °F 28.4 °F 65% 30.32 in 10.0 mi ENE 6.9 mph - N/A   Overcast
1:35 AM 39.2 °F 35.0 °F 28.4 °F 65% 30.32 in 10.0 mi NE 5.8 mph - N/A   Overcast
1:55 AM 39.2 °F 35.9 °F 28.4 °F 65% 30.31 in 10.0 mi ENE 4.6 mph - N/A   Mostly Cloudy
2:15 AM 39.2 °F 35.9 °F 28.4 °F 65% 30.32 in 10.0 mi NE 4.6 mph - N/A   Mostly Cloudy
2:35 AM 39.2 °F 35.0 °F 28.4 °F 65% 30.32 in 10.0 mi NE 5.8 mph - N/A   Scattered Clouds
2:55 AM 37.4 °F 33.8 °F 28.4 °F 70% 30.32 in 10.0 mi ENE 4.6 mph - N/A   Clear
3:15 AM 37.4 °F 32.8 °F 28.4 °F 70% 30.31 in 10.0 mi NE 5.8 mph - N/A   Scattered Clouds
3:35 AM 37.4 °F 32.8 °F 28.4 °F 70% 30.31 in 10.0 mi NNE 5.8 mph - N/A   Partly Cloudy
3:55 AM 37.4 °F 32.1 °F 28.4 °F 70% 30.31 in 10.0 mi NNE 6.9 mph - N/A   Clear
4:15 AM 35.6 °F 29.9 °F 28.4 °F 75% 30.30 in 10.0 mi NNE 6.9 mph - N/A   Clear
4:35 AM 35.6 °F 30.7 °F 28.4 °F 75% 30.29 in 10.0 mi NE 5.8 mph - N/A   Clear
4:55 AM 35.6 °F 31.7 °F 28.4 °F 75% 30.30 in 10.0 mi NE 4.6 mph - N/A   Clear
5:15 AM 35.6 °F 29.2 °F 28.4 °F 75% 30.30 in 10.0 mi NNE 8.1 mph - N/A   Clear
5:35 AM 33.8 °F 28.6 °F 28.4 °F 81% 30.31 in 10.0 mi NNE 5.8 mph - N/A   Clear
5:55 AM 33.8 °F 28.6 °F 28.4 °F 81% 30.31 in 10.0 mi NE 5.8 mph - N/A   Clear
6:15 AM 33.8 °F 28.6 °F 28.4 °F 81% 30.32 in 10.0 mi NNE 5.8 mph - N/A   Clear
6:35 AM 33.8 °F 28.6 °F 26.6 °F 75% 30.32 in 10.0 mi NNE 5.8 mph - N/A   Clear
6:55 AM 33.8 °F 29.6 °F 26.6 °F 75% 30.33 in 10.0 mi NNE 4.6 mph - N/A   Clear
7:15 AM 33.8 °F 28.6 °F 28.4 °F 81% 30.34 in 10.0 mi NNE 5.8 mph - N/A   Clear
7:35 AM 35.6 °F 29.9 °F 28.4 °F 75% 30.35 in 10.0 mi NNE 6.9 mph - N/A   Clear
7:55 AM 37.4 °F 32.1 °F 28.4 °F 70% 30.34 in 10.0 mi NNE 6.9 mph - N/A   Clear
8:15 AM 39.2 °F 33.6 °F 28.4 °F 65% 30.36 in 10.0 mi NNE 8.1 mph - N/A   Clear
11:15 AM 48.2 °F - 28.4 °F 46% 30.34 in 10.0 mi NE 11.5 mph - N/A   Clear
11:35 AM 50.0 °F - 28.4 °F 43% 30.33 in 10.0 mi NNE 9.2 mph - N/A   Clear
11:55 AM 50.0 °F - 28.4 °F 43% 30.32 in 10.0 mi NE 5.8 mph - N/A   Clear
12:15 PM 51.8 °F - 28.4 °F 41% 30.31 in 10.0 mi North 8.1 mph - N/A   Clear
12:35 PM 51.8 °F - 28.4 °F 41% 30.30 in 10.0 mi North 9.2 mph - N/A   Clear
12:55 PM 53.6 °F - 28.4 °F 38% 30.28 in 10.0 mi North 6.9 mph - N/A   Clear
1:15 PM 53.6 °F - 28.4 °F 38% 30.29 in 10.0 mi NNE 5.8 mph - N/A   Clear
1:35 PM 53.6 °F - 28.4 °F 38% 30.28 in 10.0 mi North 4.6 mph - N/A   Clear
1:55 PM 53.6 °F - 28.4 °F 38% 30.27 in 10.0 mi North 5.8 mph - N/A   Clear
2:15 PM 53.6 °F - 28.4 °F 38% 30.27 in 10.0 mi North 8.1 mph - N/A   Clear
2:35 PM 55.4 °F - 28.4 °F 36% 30.27 in 10.0 mi North 5.8 mph - N/A   Clear
2:55 PM 55.4 °F - 28.4 °F 36% 30.27 in 10.0 mi NNE 6.9 mph - N/A   Clear
3:15 PM 55.4 °F - 28.4 °F 36% 30.27 in 10.0 mi NNE 5.8 mph - N/A   Clear
3:35 PM 53.6 °F - 28.4 °F 38% 30.27 in 10.0 mi North 5.8 mph - N/A   Clear
3:55 PM 53.6 °F - 28.4 °F 38% 30.28 in 10.0 mi North 8.1 mph - N/A   Clear
4:15 PM 51.8 °F - 28.4 °F 41% 30.28 in 10.0 mi North 4.6 mph - N/A   Clear
4:35 PM 51.8 °F - 28.4 °F 41% 30.29 in 10.0 mi North 3.5 mph - N/A   Clear
4:55 PM 48.2 °F - 28.4 °F 46% 30.29 in 10.0 mi North 3.5 mph - N/A   Clear
5:15 PM 46.4 °F - 30.2 °F 53% 30.30 in 10.0 mi Calm Calm - N/A   Clear
5:35 PM 44.6 °F - 30.2 °F 57% 30.30 in 10.0 mi Calm Calm - N/A   Clear
5:55 PM 46.4 °F 44.3 °F 28.4 °F 50% 30.31 in 10.0 mi North 4.6 mph - N/A   Clear
6:15 PM 46.4 °F 44.3 °F 28.4 °F 50% 30.31 in 10.0 mi North 4.6 mph - N/A   Clear
6:35 PM 44.6 °F 41.4 °F 30.2 °F 57% 30.31 in 10.0 mi North 5.8 mph - N/A   Clear
6:55 PM 42.8 °F 39.3 °F 30.2 °F 61% 30.31 in 10.0 mi North 5.8 mph - N/A   Clear
7:15 PM 42.8 °F 40.1 °F 28.4 °F 57% 30.31 in 10.0 mi North 4.6 mph - N/A   Clear
7:35 PM 42.8 °F 40.1 °F 30.2 °F 61% 30.31 in 10.0 mi NNE 4.6 mph - N/A   Clear
7:55 PM 42.8 °F 39.3 °F 30.2 °F 61% 30.31 in 10.0 mi North 5.8 mph - N/A   Clear
8:15 PM 42.8 °F 40.1 °F 28.4 °F 57% 30.31 in 10.0 mi North 4.6 mph - N/A   Clear
8:35 PM 41.0 °F 37.1 °F 28.4 °F 61% 30.32 in 10.0 mi North 5.8 mph - N/A   Clear
8:55 PM 42.8 °F 38.6 °F 28.4 °F 57% 30.32 in 10.0 mi North 6.9 mph - N/A   Clear
9:15 PM 41.0 °F 35.8 °F 28.4 °F 61% 30.32 in 10.0 mi North 8.1 mph - N/A   Clear
9:35 PM 41.0 °F 36.4 °F 26.6 °F 57% 30.32 in 10.0 mi NNE 6.9 mph - N/A   Clear
9:55 PM 41.0 °F 35.8 °F 26.6 °F 57% 30.33 in 10.0 mi NNE 8.1 mph - N/A   Clear
10:15 PM 41.0 °F 35.2 °F 26.6 °F 57% 30.32 in 10.0 mi NNE 9.2 mph - N/A   Clear
10:35 PM 39.2 °F 34.2 °F 26.6 °F 61% 30.32 in 10.0 mi NNE 6.9 mph - N/A   Clear
10:55 PM 39.2 °F 34.2 °F 26.6 °F 61% 30.31 in 10.0 mi NNE 6.9 mph - N/A   Clear
11:15 PM 39.2 °F 35.0 °F 26.6 °F 61% 30.32 in 10.0 mi NNE 5.8 mph - N/A   Clear
11:35 PM 39.2 °F 34.2 °F 26.6 °F 61% 30.32 in 10.0 mi NNE 6.9 mph - N/A   Clear
11:55 PM 39.2 °F 33.6 °F 26.6 °F 61% 30.32 in 10.0 mi NNE 8.1 mph - N/A   Clear